CW2285 Weather Reports


time (UTC)temp
F
wind
direction
speed
knots
gust
knots
rain 1hr
in
rain 24hr
in
rain mn
in
humidity
%
barometer
mb
20260506035003 67 293 8.7 19.1 0.00 0.00 0.00 45 1009.7
20260506034503 67 315 8.7 19.1 0.00 0.00 0.00 44 1009.5
20260506034003 67 308 9.6 19.1 0.00 0.00 0.00 45 1009.5
20260506033003 67 293 9.6 24.3 0.00 0.00 0.00 45 1009.4
20260506031503 67 295 11.3 24.3 0.00 0.00 0.00 44 1009.3
20260506031003 67 303 12.2 22.6 0.00 0.00 0.00 44 1009.2
20260506030503 68 294 11.3 19.1 0.00 0.00 0.00 44 1009.1
20260506030003 68 289 12.2 19.1 0.00 0.00 0.00 43 1008.9
20260506025503 68 290 8.7 21.7 0.00 0.00 0.00 43 1008.8
20260506025003 68 297 12.2 19.1 0.00 0.00 0.00 43 1008.8
20260506023003 69 282 11.3 25.2 0.00 0.00 0.00 42 1008.4
20260506022503 69 293 13.9 21.7 0.00 0.00 0.00 41 1008.3
20260506022003 69 301 11.3 22.6 0.00 0.00 0.00 41 1008.3
20260506021503 70 297 12.2 20.0 0.00 0.00 0.00 41 1008.3
20260506021004 70 291 12.2 22.6 0.00 0.00 0.00 40 1008.3
20260506020503 70 295 12.2 22.6 0.00 0.00 0.00 40 1008.3
20260506015504 71 292 13.9 20.9 0.00 0.00 0.00 39 1008.1
20260506015003 71 296 12.2 22.6 0.00 0.00 0.00 39 1008.0
20260506014503 72 298 10.4 20.9 0.00 0.00 0.00 38 1007.9
20260506014004 72 279 13.0 20.0 0.00 0.00 0.00 37 1007.8
20260506013503 72 299 10.4 22.6 0.00 0.00 0.00 37 1007.8
20260506013003 73 292 12.2 20.0 0.00 0.00 0.00 36 1007.8
20260506012504 73 298 13.9 26.1 0.00 0.00 0.00 35 1007.8
20260506012004 73 297 8.7 17.4 0.00 0.00 0.00 35 1007.8
20260506011503 73 284 15.6 25.2 0.00 0.00 0.00 35 1007.8
20260506011004 74 305 12.2 21.7 0.00 0.00 0.00 34 1007.8
20260506010503 74 291 12.2 22.6 0.00 0.00 0.00 34 1007.8
20260506010003 74 294 11.3 21.7 0.00 0.00 0.00 34 1007.7
20260506005503 74 295 11.3 21.7 0.00 0.00 0.00 33 1007.8
20260506005003 74 303 13.0 21.7 0.00 0.00 0.00 32 1007.8
20260506004504 74 278 14.8 20.9 0.00 0.00 0.00 32 1007.7
20260506004004 75 287 14.8 24.3 0.00 0.00 0.00 32 1007.7
20260506003003 75 280 10.4 19.1 0.00 0.00 0.00 31 1007.7
20260506002503 75 289 13.9 21.7 0.00 0.00 0.00 31 1007.7
20260506002003 76 281 13.9 21.7 0.00 0.00 0.00 30 1007.7
20260506001504 76 289 9.6 19.1 0.00 0.00 0.00 30 1007.7
20260506001003 76 286 13.9 22.6 0.00 0.00 0.00 30 1007.7
20260506000004 77 285 12.2 21.7 0.00 0.00 0.00 28 1007.7
20260505235504 77 295 11.3 19.1 0.00 0.00 0.00 27 1007.7
20260505235004 77 291 7.8 19.1 0.00 0.00 0.00 27 1007.7
20260505234503 78 284 8.7 14.8 0.00 0.00 0.00 24 1007.7
20260505234004 77 282 10.4 17.4 0.00 0.00 0.00 26 1007.7
20260505233503 78 284 10.4 17.4 0.00 0.00 0.00 25 1007.7
20260505233004 77 284 12.2 20.0 0.00 0.00 0.00 25 1007.7
20260505232503 78 277 10.4 19.1 0.00 0.00 0.00 26 1007.7
20260505232004 78 286 8.7 18.2 0.00 0.00 0.00 25 1007.7
20260505231003 78 285 10.4 18.2 0.00 0.00 0.00 26 1007.8
20260505230504 78 283 10.4 17.4 0.00 0.00 0.00 25 1007.8
20260505225503 78 280 10.4 17.4 0.00 0.00 0.00 26 1007.8
20260505224503 78 287 10.4 18.2 0.00 0.00 0.00 25 1008.0
20260505224003 78 320 7.8 15.6 0.00 0.00 0.00 26 1008.1
20260505223504 78 282 7.0 12.2 0.00 0.00 0.00 25 1008.1
20260505223003 78 282 7.8 17.4 0.00 0.00 0.00 26 1008.2
20260505222504 78 295 8.7 19.1 0.00 0.00 0.00 26 1008.3
20260505222003 78 298 4.3 14.8 0.00 0.00 0.00 26 1008.3
20260505221503 79 293 5.2 14.8 0.00 0.00 0.00 26 1008.3
20260505221003 79 290 7.8 17.4 0.00 0.00 0.00 26 1008.3
20260505220504 79 290 8.7 13.9 0.00 0.00 0.00 25 1008.6
20260505215004 79 311 7.0 14.8 0.00 0.00 0.00 26 1008.7
20260505214503 79 294 8.7 18.2 0.00 0.00 0.00 25 1008.7
20260505214004 78 299 8.7 19.1 0.00 0.00 0.00 26 1008.8
20260505212503 78 318 6.1 13.0 0.00 0.00 0.00 26 1008.9
20260505212003 78 273 6.1 17.4 0.00 0.00 0.00 26 1008.9
20260505211503 79 313 5.2 10.4 0.00 0.00 0.00 26 1009.1
20260505211004 79 322 7.8 15.6 0.00 0.00 0.00 26 1009.1
20260505210504 79 310 7.8 13.0 0.00 0.00 0.00 27 1009.3
20260505210004 77 324 2.6 10.4 0.00 0.00 0.00 30 1009.3
20260505205003 77 303 6.1 17.4 0.00 0.00 0.00 29 1009.3
20260505204504 77 285 4.3 13.9 0.00 0.00 0.00 31 1009.3
20260505204004 77 256 5.2 11.3 0.00 0.00 0.00 30 1009.4
20260505203503 77 286 6.1 13.0 0.00 0.00 0.00 29 1009.4
20260505202503 77 294 7.8 13.9 0.00 0.00 0.00 29 1009.4
20260505202003 77 308 5.2 13.0 0.00 0.00 0.00 31 1009.4
20260505201504 77 303 7.0 14.8 0.00 0.00 0.00 30 1009.4
20260505200503 78 281 6.1 13.9 0.00 0.00 0.00 31 1009.5
20260505200004 77 343 2.6 12.2 0.00 0.00 0.00 31 1009.6
20260505195503 78 298 5.2 15.6 0.00 0.00 0.00 31 1009.6
20260505194503 76 286 7.0 13.0 0.00 0.00 0.00 33 1009.9
20260505194003 75 34 1.7 6.1 0.00 0.00 0.00 33 1009.9
20260505193503 74 327 1.7 6.1 0.00 0.00 0.00 36 1010.0
20260505193003 75 231 3.5 10.4 0.00 0.00 0.00 32 1010.0
20260505192504 76 271 4.3 8.7 0.00 0.00 0.00 35 1009.9
20260505192004 75 300 1.7 5.2 0.00 0.00 0.00 34 1010.1
20260505191503 76 320 4.3 10.4 0.00 0.00 0.00 35 1010.2
20260505190504 75 313 2.6 5.2 0.00 0.00 0.00 36 1010.2
20260505190004 74 283 4.3 7.8 0.00 0.00 0.00 35 1010.3
20260505185504 75 263 4.3 10.4 0.00 0.00 0.00 35 1010.3
20260505185004 75 284 5.2 11.3 0.00 0.00 0.00 35 1010.2
20260505184504 74 335 1.7 7.0 0.00 0.00 0.00 37 1010.3
20260505184004 74 292 2.6 8.7 0.00 0.00 0.00 36 1010.3
20260505183503 75 286 4.3 11.3 0.00 0.00 0.00 36 1010.2
20260505183004 74 309 3.5 7.0 0.00 0.00 0.00 37 1010.3
20260505182504 73 295 6.1 10.4 0.00 0.00 0.00 37 1010.3
20260505182003 73 287 3.5 7.8 0.00 0.00 0.00 37 1010.4
20260505181504 73 261 4.3 7.8 0.00 0.00 0.00 38 1010.3
20260505181003 72 272 2.6 2.6 0.00 0.00 0.00 39 1010.3
20260505180503 73 313 4.3 7.8 0.00 0.00 0.00 38 1010.4
20260505180003 73 299 1.7 6.1 0.00 0.00 0.00 37 1010.4
20260505175503 73 28 1.7 5.2 0.00 0.00 0.00 39 1010.4
20260505175003 73 277 2.6 5.2 0.00 0.00 0.00 39 1010.3
20260505174003 72 275 4.3 7.0 0.00 0.00 0.00 38 1010.2
20260505173503 72 298 2.6 5.2 0.00 0.00 0.00 40 1010.1
20260505173003 73 327 2.6 7.0 0.00 0.00 0.00 40 1010.1
20260505172503 73 301 5.2 10.4 0.00 0.00 0.00 40 1010.0
20260505172003 72 290 4.3 11.3 0.00 0.00 0.00 40 1010.0
20260505171503 72 252 5.2 13.0 0.00 0.00 0.00 40 1010.0
20260505171003 72 297 5.2 10.4 0.00 0.00 0.00 40 1010.1
20260505170503 72 312 2.6 8.7 0.00 0.00 0.00 41 1010.0
20260505170004 71 282 5.2 11.3 0.00 0.00 0.00 41 1010.0
20260505165503 71 332 2.6 6.1 0.00 0.00 0.00 42 1010.0
20260505165004 70 273 4.3 7.8 0.00 0.00 0.00 42 1010.1
20260505164503 70 284 4.3 10.4 0.00 0.00 0.00 43 1010.0
20260505164003 70 294 5.2 10.4 0.00 0.00 0.00 43 1009.9
20260505163503 69 313 2.6 8.7 0.00 0.00 0.00 44 1009.9
20260505162503 69 298 3.5 8.7 0.00 0.00 0.00 45 1009.9
20260505162004 68 307 3.5 8.7 0.00 0.00 0.00 46 1009.9
20260505161503 67 274 6.1 11.3 0.00 0.00 0.00 47 1009.9
20260505161004 67 298 5.2 10.4 0.00 0.00 0.00 48 1009.8
20260505160504 68 292 5.2 10.4 0.00 0.00 0.00 47 1009.8
20260505153003 66 293 5.2 11.3 0.00 0.00 0.00 49 1009.4
20260505152504 66 283 5.2 11.3 0.00 0.00 0.00 50 1009.4
20260505152004 65 302 2.6 6.1 0.00 0.00 0.00 51 1009.5
20260505151504 66 274 4.3 10.4 0.00 0.00 0.00 51 1009.5
20260505151004 66 270 5.2 8.7 0.00 0.00 0.00 52 1009.5
20260505150503 65 280 4.3 12.2 0.00 0.00 0.00 53 1009.4
20260505125004 60 307 5.2 12.2 0.00 0.00 0.00 59 1008.6
20260505124503 60 301 6.1 12.2 0.00 0.00 0.00 59 1008.6
20260505124003 60 302 6.1 11.3 0.00 0.00 0.00 59 1008.5
20260505123504 60 313 5.2 11.3 0.00 0.00 0.00 59 1008.5
20260505123003 60 300 7.8 14.8 0.00 0.00 0.00 59 1008.6
20260505122503 60 311 7.8 14.8 0.00 0.00 0.00 59 1008.6
20260505122003 60 298 6.1 13.0 0.00 0.00 0.00 59 1008.5
20260505121504 60 297 6.1 12.2 0.00 0.00 0.00 59 1008.5
20260505121004 60 297 7.8 13.9 0.00 0.00 0.00 59 1008.6
20260505120503 60 305 6.1 13.9 0.00 0.00 0.00 58 1008.6
20260505120005 61 301 7.8 12.2 0.00 0.00 0.00 58 1008.7
20260505115004 61 293 6.1 12.2 0.00 0.00 0.00 57 1008.8
20260505114504 61 288 6.1 13.0 0.00 0.00 0.00 57 1008.8
20260505114004 61 288 9.6 14.8 0.00 0.00 0.00 56 1008.8
20260505113503 61 287 7.0 12.2 0.00 0.00 0.00 55 1008.8
20260505113003 61 290 4.3 10.4 0.00 0.00 0.00 55 1008.8
20260505112504 61 301 5.2 8.7 0.00 0.00 0.00 55 1008.7
20260505112003 61 299 5.2 11.3 0.00 0.00 0.00 56 1008.7
20260505111503 61 294 6.1 10.4 0.00 0.00 0.00 56 1008.7
20260505111003 60 329 3.5 7.8 0.00 0.00 0.00 58 1008.7
20260505110504 60 317 2.6 7.8 0.00 0.00 0.00 58 1008.7
20260505101504 61 302 3.5 7.8 0.00 0.00 0.00 55 1008.6
20260505100004 61 308 5.2 10.4 0.00 0.00 0.00 56 1008.7
20260505095503 61 310 5.2 11.3 0.00 0.00 0.00 56 1008.8
20260505095004 61 314 3.5 7.0 0.00 0.00 0.00 56 1008.6
20260505094504 61 320 4.3 8.7 0.00 0.00 0.00 56 1008.5
20260505094004 61 300 2.6 10.4 0.00 0.00 0.00 56 1008.6
20260505093504 61 315 4.3 11.3 0.00 0.00 0.00 57 1008.7
20260505093004 61 303 4.3 7.8 0.00 0.00 0.00 57 1008.8
20260505092504 61 309 4.3 10.4 0.00 0.00 0.00 57 1008.8
20260505092003 61 291 5.2 12.2 0.00 0.00 0.00 56 1008.8
20260505091504 61 307 5.2 10.4 0.00 0.00 0.00 56 1008.8
20260505091004 61 299 5.2 10.4 0.00 0.00 0.00 57 1008.8
20260505090504 62 296 6.1 13.0 0.00 0.00 0.00 56 1008.8
20260505090003 62 301 6.1 12.2 0.00 0.00 0.00 56 1008.8
20260505085504 61 308 5.2 10.4 0.00 0.00 0.00 56 1008.8
20260505085003 61 301 6.1 12.2 0.00 0.00 0.00 57 1008.8
20260505084504 61 294 5.2 11.3 0.00 0.00 0.00 58 1008.8
20260505084003 62 304 6.1 14.8 0.00 0.00 0.00 57 1008.9
20260505083504 62 309 6.1 12.2 0.00 0.00 0.00 56 1008.9
20260505083004 62 293 6.1 11.3 0.00 0.00 0.00 56 1008.8
20260505082504 62 297 5.2 10.4 0.00 0.00 0.00 56 1008.8
20260505082004 62 302 5.2 10.4 0.00 0.00 0.00 56 1008.9
20260505081504 62 325 7.0 14.8 0.00 0.00 0.00 55 1008.9
20260505081003 62 304 6.1 11.3 0.00 0.00 0.00 54 1008.8
20260505080504 62 306 6.1 14.8 0.00 0.00 0.00 54 1008.8
20260505080004 63 301 7.0 10.4 0.00 0.00 0.00 54 1008.9
20260505075504 63 298 4.3 10.4 0.00 0.00 0.00 53 1008.8
20260505075003 63 311 6.1 11.3 0.00 0.00 0.00 53 1008.8
20260505074504 63 300 6.1 14.8 0.00 0.00 0.00 53 1008.8
20260505074004 63 306 7.8 15.6 0.00 0.00 0.00 53 1008.8
20260505073504 63 292 7.0 12.2 0.00 0.00 0.00 52 1008.8
20260505072504 63 306 6.1 13.9 0.00 0.00 0.00 51 1008.8
20260505072004 63 305 6.1 12.2 0.00 0.00 0.00 51 1008.8
20260505071503 63 315 6.1 12.2 0.00 0.00 0.00 52 1008.8
20260505071003 64 310 4.3 13.0 0.00 0.00 0.00 52 1008.8
20260505070504 64 295 6.1 10.4 0.00 0.00 0.00 51 1008.8
20260505070003 64 304 5.2 12.2 0.00 0.00 0.00 50 1008.8
20260505065003 64 314 4.3 8.7 0.00 0.00 0.00 49 1008.8
20260505064003 65 308 4.3 10.4 0.00 0.00 0.00 48 1008.9
20260505063503 65 289 5.2 11.3 0.00 0.00 0.00 47 1008.9
20260505063003 65 280 6.1 11.3 0.00 0.00 0.00 46 1008.9
20260505062504 65 284 6.1 11.3 0.00 0.00 0.00 47 1008.9
20260505062004 65 303 7.8 14.8 0.00 0.00 0.00 46 1008.9
20260505061503 65 289 5.2 11.3 0.00 0.00 0.00 46 1008.9
20260505061004 65 297 5.2 11.3 0.00 0.00 0.00 45 1009.0
20260505060504 66 293 6.1 13.9 0.00 0.00 0.00 44 1009.0
20260505060003 66 282 4.3 11.3 0.00 0.00 0.00 44 1008.9
20260505055503 66 286 5.2 12.2 0.00 0.00 0.00 44 1008.9
20260505054504 66 285 5.2 10.4 0.00 0.00 0.00 44 1009.2
20260505054003 66 295 6.1 11.3 0.00 0.00 0.00 44 1009.1
20260505053003 66 269 5.2 10.4 0.00 0.00 0.00 44 1009.1
20260505052504 66 278 6.1 12.2 0.00 0.00 0.00 46 1009.3
20260505051502 66 286 4.3 10.4 0.00 0.00 0.00 44 1009.2
20260505051002 66 294 6.1 12.2 0.00 0.00 0.00 44 1009.2
20260505041502 67 289 6.1 15.6 0.00 0.00 0.00 45 1008.9
20260505041003 67 292 6.1 13.0 0.00 0.00 0.00 45 1009.0
20260505040503 67 295 7.8 14.8 0.00 0.00 0.00 45 1008.8
20260505040003 67 288 9.6 15.6 0.00 0.00 0.00 45 1008.8
20260505035502 67 275 7.8 18.2 0.00 0.00 0.00 45 1008.8